Hourly Weather Roundup
Issued by NWS

Home | Current Version | Previous Version | Text Only | Print | Product List | Glossary On
Versions: 1 2 3 4 5 6 7 8 9 10 11 12 13 14 15 16 17 18 19 20 21 22 23 24 25 26 27 28 29 30 31 32 33 34 35 36 37 38 39 40 41 42 43 44 45 46 47 48 49 50
000
NZUS43 KILX 161810
HWRCRS

NWR HOURLY WEATHER ROUNDUP
NATIONAL WEATHER SERVICE, LINCOLN IL
1200 PM CST MON JAN 16 2017


CITY           SKY/WX    TMP DP  RH WIND       PRES   REMARKS
CHAMPAIGN      FOG       40  38  93 E14       30.12F VSB 1/4 WCI  32
LAWRENCEVILLE  CLOUDY    50  49  96 S8        30.15F FOG
PEORIA         CLOUDY    35  35 100 E9        30.08F FOG     WCI  28
SPRINGFIELD    LGT RAIN  42  41  96 SE8       30.08F VSB 1/4
$$


CITY           SKY/WX    TMP DP  RH WIND       PRES   REMARKS
BLOOMINGTON    LGT RAIN  36  36 100 E12       30.10F VSB 1/4 WCI  28
DANVILLE       FOG       38  38  99 E7        30.12F VSB 1/4 WCI  33
DECATUR        FOG       41  41 100 E8        30.10F VSB 1/4
EFFINGHAM      FOG       46  46 100 SE9       30.12F VSB 1/4
FLORA          CLOUDY    49  48  98 S10       30.12F FOG
GALESBURG      RAIN      34  34 100 E8        30.06F WCI  27
JACKSONVILLE   LGT RAIN  38  38 100 E7        30.05F VSB 1/4 WCI  33
LACON          LGT RAIN  34  34 100 E8        30.10F WCI  27
LINCOLN        FOG       39  39 100 E9        30.09F VSB 1/4 WCI  32
LITCHFIELD     LGT RAIN  45  45 100 SE10      30.06F

CITY           SKY/WX    TMP DP  RH WIND       PRES   REMARKS
MACOMB         LGT RAIN  35  35 100 E8        30.08F WCI  28
MATTOON        FOG       46  46 100 SE12      30.10F VSB 1/2
MOLINE         RAIN      35  33  92 E8        30.07F FOG     WCI  29
OLNEY          CLOUDY    46  46 100 SE8       30.12F FOG
PARIS          FOG       43  43 100 E7        30.14F VSB 1/2
PONTIAC        LGT RAIN  35  35 100 E12       30.13F VSB 3/4 WCI  27
QUINCY         LGT RAIN  38  38 100 SE13      30.00F FOG     WCI  30
RANTOUL        FOG       39  39  99 E9        30.12F VSB 1/4 WCI  33
ROBINSON       CLOUDY    47  46  99 SE7       30.15F FOG
TAYLORVILLE    FOG       44  44 100 SE8       30.08F VSB 3/4
TERRE HAUTE    CLOUDY    46  44  93 E8        30.15F FOG
$$


CITY           SKY/WX    TMP DP  RH WIND       PRES   REMARKS
BURLINGTON     RAIN      35  35 100 E8        30.04F FOG     WCI  29
CHICAGO        LGT RAIN  35  34  96 E8        30.16F VSB 1   WCI  29
DES MOINES     LGT RAIN  34  32  92 E8        29.96F FOG     WCI  27
EVANSVILLE     CLOUDY    53  48  83 SE5       30.16F
INDIANAPOLIS   CLOUDY    44  42  93 SE9       30.18F FOG
KANSAS CITY    LGT RAIN  43  43 100 CALM      29.87F VSB 1/8
MILWAUKEE      LGT RAIN  35  31  85 SE6       30.19F FOG     WCI  30
ST LOUIS       LGT RAIN  48  46  93 SE12      30.03F FOG
$$





USA.gov is the U.S. government's official web portal to all federal, state and local government web resources and services.